Theta_e
292 286 285 285 287 288 290 290 291 290 288 287 286 284 285 285 286 289 290 291 289 288 288 288 288 288 291 293 295 296 297 296 295 294 294 295 295 295 294 295 295 295 297 300 299 298 298 298 298 299 300 300 301 301 302 302 302 303 304 304 304 307 308 310 313 314 314 314 312 313 315 316 317 318 319 320 321 322 323 323 324 323 323 323 322 322
292 284 286 289 289 290 291 291 291 290 289 287 286 284 285 285 284 289 289 292 291 287 283 287 288 290 292 294 295 296 295 293 294 294 294 295 295 294 293 293 294 295 296 296 297 298 296 296 297 296 296 297 297 298 299 300 301 301 302 304 305 306 307 308 311 313 314 314 315 314 315 316 317 317 317 318 320 321 321 322 322 322 322 322 322 321
287 285 289 290 290 289 290 290 290 289 288 287 285 285 283 286 286 290 290 289 289 287 287 288 288 289 291 293 295 294 294 294 294 293 294 294 294 294 292 292 293 293 294 294 294 294 294 295 296 296 297 296 296 297 297 299 300 300 301 302 305 306 307 308 309 310 312 313 314 315 315 316 316 318 318 319 319 319 319 319 319 320 320 321 321 321
284 287 291 291 289 289 288 288 288 287 287 285 283 281 283 285 283 283 285 288 289 288 287 289 286 288 291 294 292 292 292 292 293 293 293 292 292 292 293 293 292 292 293 293 293 294 294 293 294 294 295 297 298 297 296 296 298 300 301 301 303 305 306 308 308 309 311 313 313 314 314 315 315 313 313 313 312 315 315 317 318 320 321 321 322 322
287 287 289 291 290 289 288 288 286 285 284 286 286 285 284 285 286 285 286 287 290 290 287 286 285 286 288 286 288 292 292 292 293 291 289 290 290 291 291 291 291 291 292 293 294 295 295 295 296 295 296 296 296 297 297 296 296 299 299 301 302 304 305 307 308 309 309 309 306 306 306 307 308 308 310 310 310 314 316 318 318 319 320 321 321 321
288 291 291 287 287 288 287 285 286 286 283 283 287 287 287 287 286 286 287 286 283 283 283 285 280 278 281 286 289 292 292 292 291 286 288 288 289 290 290 290 291 292 291 293 294 294 293 293 295 296 296 296 295 297 298 298 297 297 299 300 301 302 303 305 307 308 309 308 309 308 308 306 306 309 308 310 313 314 315 316 317 315 317 319 320 320
289 292 292 290 288 285 286 286 286 287 284 281 284 288 289 288 287 285 285 283 278 277 282 285 277 277 285 287 289 290 288 290 291 285 287 287 289 289 289 290 290 290 291 292 292 292 293 295 295 297 298 297 296 297 296 295 295 296 298 299 300 301 301 304 305 306 307 307 308 309 310 310 310 310 310 312 314 315 315 315 315 316 316 318 318 318
288 289 290 290 288 287 284 284 286 288 283 281 283 284 286 285 284 284 283 283 282 280 284 284 283 278 280 286 287 287 287 289 286 286 286 287 287 288 289 289 289 290 290 290 291 292 293 293 294 296 298 299 299 298 296 295 296 295 296 297 298 299 301 302 304 306 308 308 308 308 308 309 309 309 310 311 311 310 311 313 313 314 315 317 318 318
290 285 288 287 286 285 285 288 286 289 286 283 285 286 285 286 285 282 283 281 280 279 281 279 282 277 277 283 286 287 287 286 285 285 284 285 286 287 288 290 289 290 290 290 291 292 293 294 295 295 297 300 298 297 296 297 297 295 295 295 296 297 298 300 301 305 306 308 308 308 308 307 308 309 309 304 307 308 309 311 310 312 313 314 316 317
287 288 288 290 287 285 288 288 289 289 286 287 285 286 284 284 284 283 282 283 280 278 278 279 281 275 279 281 284 284 284 284 283 284 285 286 286 287 289 289 290 290 291 291 291 291 292 293 293 294 295 297 297 296 296 296 295 295 295 295 295 296 296 298 300 304 305 305 306 306 306 307 307 305 302 303 305 306 305 309 309 310 311 312 313 314
288 292 291 289 287 289 288 287 288 289 291 287 287 289 281 280 280 279 280 279 277 273 280 280 282 281 275 282 285 284 284 282 284 284 284 285 287 288 288 288 289 290 291 291 291 292 291 292 292 291 295 297 297 296 295 296 295 294 294 296 296 295 294 296 299 301 303 304 304 306 306 306 306 304 304 303 303 304 303 308 308 309 311 311 312 311
289 289 288 288 292 289 289 287 286 288 287 288 284 280 281 284 276 279 273 275 274 274 277 280 282 282 274 278 283 286 286 285 285 285 286 286 287 286 287 288 288 288 290 291 291 292 292 292 292 291 292 293 296 295 296 295 295 295 294 295 296 295 295 295 297 299 301 302 302 303 303 304 304 303 304 304 305 305 306 307 307 306 306 308 310 310
286 288 290 289 291 293 287 286 285 284 286 286 282 283 278 271 271 269 270 270 273 274 277 277 282 279 280 285 286 288 287 286 284 287 288 287 286 287 287 287 287 288 288 290 290 290 291 291 292 292 292 292 294 296 296 296 294 294 295 294 295 295 294 297 297 298 299 300 301 302 302 302 302 303 304 304 305 305 306 307 307 306 308 308 308 309
280 284 288 289 289 292 291 286 282 282 284 284 284 282 279 272 270 265 266 267 271 276 279 278 282 279 280 284 291 291 293 293 289 285 287 287 287 288 288 287 287 289 288 289 289 289 289 290 291 291 291 292 292 292 295 296 296 295 295 294 294 295 294 295 295 297 297 299 300 300 301 302 302 303 303 304 305 305 306 307 308 308 309 309 310 310
272 277 281 286 284 290 292 290 289 283 283 286 285 285 282 278 271 268 268 270 271 272 276 278 277 274 280 283 285 288 291 293 290 288 287 286 287 287 285 286 287 287 288 288 289 289 289 290 290 291 292 292 292 292 293 293 294 293 296 294 294 294 295 294 295 295 296 297 297 298 300 301 302 303 303 303 304 305 306 306 307 308 309 310 311 311
281 281 281 290 285 290 290 291 288 284 284 283 282 283 278 280 279 275 273 271 271 271 270 275 276 277 283 284 288 289 287 286 285 286 286 287 287 286 288 289 289 288 289 289 288 290 289 288 288 290 290 290 290 291 290 292 293 294 295 294 295 295 295 295 295 295 296 297 297 296 298 300 301 301 302 302 303 304 306 306 307 307 308 309 310 311
283 279 285 287 286 289 289 289 289 289 279 282 284 281 284 284 284 279 276 276 273 270 274 274 278 280 284 289 292 292 288 289 285 285 285 288 288 286 287 288 287 288 287 288 289 289 290 289 289 288 289 290 290 290 292 294 293 294 295 295 295 296 295 295 295 296 295 296 296 296 297 297 298 300 300 301 301 302 303 305 306 306 307 308 309 310
282 281 285 284 284 286 284 286 287 288 286 282 280 283 285 286 284 278 271 269 267 269 272 276 277 279 279 279 283 285 284 286 285 286 287 288 286 285 288 288 288 288 287 287 288 289 289 289 289 289 289 289 290 291 290 292 291 292 294 294 294 294 297 297 296 296 295 295 295 296 296 296 298 299 300 300 301 301 302 302 304 303 304 305 307 308
287 281 284 283 283 286 284 288 286 287 287 284 281 283 285 277 276 277 272 270 268 267 268 272 275 278 280 281 281 283 282 284 285 287 286 286 286 287 288 288 287 286 286 288 289 288 289 289 290 289 289 290 289 289 290 290 290 291 291 292 293 295 296 296 296 296 296 295 297 298 298 297 297 297 298 298 298 299 301 302 302 303 304 303 304 305
286 280 281 283 284 285 283 284 280 284 286 284 286 284 281 281 277 276 280 274 274 268 266 270 270 277 281 282 284 288 286 285 286 286 287 288 288 288 288 288 287 287 287 288 289 289 289 289 289 290 290 290 291 291 291 290 290 293 293 292 292 292 292 293 294 294 296 296 295 297 296 295 296 296 297 297 297 299 300 301 301 302 300 303 303 304
283 284 276 282 281 283 281 283 283 285 283 283 283 281 280 280 282 281 279 277 276 266 265 267 271 277 278 285 287 289 288 286 287 287 288 288 287 287 288 288 287 287 287 289 289 289 289 289 289 289 289 289 289 288 289 291 291 292 291 291 292 294 294 293 294 294 295 295 295 295 296 296 296 296 296 296 296 298 299 300 301 302 303 301 302 303
282 283 280 281 279 281 282 283 286 287 288 286 285 283 284 281 278 275 275 277 270 272 269 266 273 280 282 284 288 288 287 286 287 288 289 289 287 287 288 287 286 287 288 289 289 288 289 288 289 290 290 289 290 292 291 292 292 292 292 293 292 291 294 294 294 294 295 294 294 295 295 295 295 296 295 295 296 297 298 298 299 300 298 300 302 302
287 284 282 279 281 282 284 283 283 284 285 283 286 285 286 284 283 277 274 273 272 276 271 272 269 279 284 286 286 287 286 286 287 287 288 288 287 287 287 287 287 288 291 291 289 288 288 288 288 289 290 290 290 290 290 290 291 292 292 293 293 293 296 295 296 293 292 293 294 295 294 294 295 295 295 296 296 296 296 296 296 296 299 300 300 300
292 285 282 283 284 281 283 282 282 282 285 283 283 281 283 283 284 282 281 278 278 276 276 273 272 280 284 282 284 282 281 281 282 284 287 286 287 287 286 287 288 288 289 288 287 287 287 287 288 289 289 289 289 289 289 289 289 289 290 290 291 292 293 295 296 295 293 293 293 292 294 294 294 295 294 294 295 295 294 295 295 295 295 297 297 299
283 284 285 280 279 279 280 281 280 279 281 281 282 284 285 286 285 285 284 281 278 279 280 274 272 279 284 281 283 283 283 284 285 285 286 287 288 287 287 288 287 287 288 286 286 287 288 288 288 287 287 287 287 288 288 288 288 288 288 288 289 290 290 291 295 295 294 293 293 292 293 293 293 293 293 293 294 294 294 294 294 294 295 296 296 297
287 285 285 278 276 274 274 275 276 277 279 281 280 283 284 284 284 282 279 281 277 281 281 277 277 284 284 283 284 282 283 285 284 285 286 287 288 289 287 288 286 286 287 286 287 287 287 286 286 286 286 287 287 287 287 287 288 288 288 288 288 288 289 290 291 296 295 294 294 293 292 292 292 293 293 293 293 294 294 294 293 294 294 295 297 296
283 286 287 285 282 280 282 284 282 282 280 279 281 283 283 284 285 285 284 281 278 282 280 282 282 283 285 286 283 286 284 284 286 287 287 287 287 288 286 286 286 286 286 286 286 286 285 285 285 285 285 286 286 286 286 287 287 287 287 287 288 288 288 288 289 291 294 294 294 295 294 294 293 293 293 293 295 293 293 293 295 294 296 296 297 296
282 284 286 287 286 287 287 286 283 285 281 282 282 282 284 283 284 283 282 280 285 280 277 284 285 282 284 287 287 287 287 286 287 287 288 288 290 289 289 287 288 286 286 285 285 285 284 284 284 284 284 284 284 284 285 286 286 286 287 286 287 287 287 287 287 288 288 289 289 289 290 291 293 294 295 294 293 294 294 294 293 294 295 294 295 296
285 284 286 287 286 288 288 287 282 283 282 282 283 283 282 283 283 282 283 285 285 281 279 284 285 283 285 287 289 289 290 290 289 289 290 290 290 288 288 287 285 284 283 283 283 283 283 282 282 282 282 282 282 282 283 284 284 285 286 286 285 285 285 286 286 285 285 285 285 285 286 288 289 290 291 292 294 294 294 295 295 295 294 294 294 297
286 284 285 286 285 286 287 287 287 283 282 282 282 283 283 283 283 283 284 285 285 283 285 285 284 283 286 287 287 289 291 292 293 294 290 290 291 288 286 285 284 283 282 281 281 281 281 281 281 281 281 281 280 280 281 282 283 284 284 284 284 283 284 285 284 284 284 284 285 285 286 286 286 286 287 287 288 290 291 292 293 294 295 296 297 296
287 283 289 286 283 283 286 287 287 286 284 282 283 283 283 283 283 284 284 284 285 284 285 285 284 284 289 289 287 289 289 290 291 290 292 289 288 286 284 282 282 282 281 281 281 280 280 280 280 280 279 279 279 279 280 281 282 283 283 283 282 283 284 284 284 284 284 284 285 286 286 286 286 286 286 286 286 287 287 288 289 289 290 290 290 293
285 283 288 285 281 280 284 284 284 285 284 283 282 283 282 282 281 283 282 284 283 282 284 284 282 283 288 289 292 291 290 290 289 290 290 287 285 285 283 282 281 281 280 280 280 280 279 279 279 278 278 278 278 279 279 279 281 282 281 282 282 282 283 284 284 284 284 284 285 286 286 286 286 286 286 287 286 285 285 286 286 287 287 287 288 288
285 283 282 282 279 278 284 284 283 283 281 278 280 283 285 285 285 286 286 286 286 286 282 281 282 288 287 288 288 289 291 292 292 293 293 284 283 283 282 281 280 279 279 279 279 279 279 278 278 277 278 278 278 278 279 279 280 281 281 281 282 282 283 283 283 283 284 284 285 285 286 286 286 286 287 287 286 285 285 286 286 286 286 286 286 286
282 284 282 284 279 278 284 283 283 279 272 274 286 289 288 285 285 284 284 286 287 288 286 288 288 290 287 286 287 288 289 291 292 287 284 285 282 281 281 280 280 279 278 278 278 278 279 278 277 277 277 277 277 277 278 279 279 280 280 281 282 282 282 282 282 283 283 283 284 284 285 286 286 286 287 287 287 287 287 286 286 286 286 286 286 286
282 282 281 283 279 277 282 280 276 272 274 286 289 290 290 290 288 287 287 288 288 289 289 288 288 289 290 291 290 289 286 281 281 281 281 281 282 281 280 279 278 277 277 277 276 277 277 277 276 276 275 276 276 277 277 278 279 279 279 279 280 281 281 282 282 282 282 282 283 284 284 285 285 285 286 286 287 287 287 287 287 287 287 286 286 285
282 281 281 281 281 281 278 277 271 272 282 282 286 288 290 290 289 287 285 287 288 289 288 287 289 290 291 291 292 291 281 280 279 280 280 280 280 281 278 277 276 276 275 275 275 276 276 276 275 275 275 276 275 276 276 277 278 278 277 278 279 279 280 281 281 281 282 282 282 283 283 283 284 284 285 286 286 286 286 287 287 287 287 287 287 286
285 284 283 279 283 276 277 278 276 282 282 282 282 283 286 284 284 284 280 283 289 289 289 288 289 290 291 291 292 285 280 280 278 277 280 279 278 278 278 276 276 275 275 275 276 275 276 276 275 275 275 275 274 274 275 276 278 277 277 276 277 277 278 279 279 280 281 281 282 282 282 282 283 283 284 285 285 285 285 286 286 287 287 287 287 287
285 281 283 280 277 283 277 275 276 276 272 278 284 284 289 289 289 289 285 282 288 289 290 289 288 289 290 290 290 282 282 280 280 278 277 278 278 277 277 276 275 275 274 275 275 276 276 275 275 275 274 274 273 274 274 275 277 276 275 274 275 275 275 276 277 278 280 280 281 281 282 282 282 282 283 283 283 284 285 286 286 286 287 286 286 286
285 286 284 281 278 281 277 273 273 272 275 284 284 286 288 290 289 285 283 279 284 279 283 286 289 289 289 289 286 281 282 281 283 281 277 277 277 277 275 275 275 274 274 274 274 274 274 274 274 274 274 273 272 273 273 275 276 274 273 273 273 273 273 273 275 277 277 279 280 281 281 281 281 281 282 282 283 284 284 285 285 286 286 286 287 287
282 282 282 278 277 279 277 275 273 278 275 282 283 283 282 286 285 284 275 275 279 273 277 278 282 287 286 285 283 282 283 281 284 277 277 276 276 276 275 274 274 273 273 273 273 274 274 274 273 272 272 272 272 272 272 274 274 273 272 271 272 271 271 272 273 276 277 279 280 280 280 280 280 280 281 281 282 283 284 285 284 285 285 286 286 286
278 279 280 275 278 278 278 276 279 279 282 276 274 274 273 280 284 277 273 278 273 273 273 274 274 275 277 280 283 282 277 275 277 276 276 275 274 274 274 274 274 273 272 271 272 274 273 273 272 271 271 271 271 271 271 272 272 271 271 270 269 269 269 271 273 274 276 278 278 279 279 279 279 280 280 280 281 282 283 284 284 284 285 284 285 284
278 279 280 280 277 276 277 276 276 279 269 266 268 269 273 278 273 275 273 269 271 272 272 271 272 273 275 275 275 274 275 277 276 276 274 274 273 273 273 273 273 272 272 272 271 271 271 271 271 270 270 271 271 270 270 270 270 270 269 268 267 267 269 270 271 273 275 276 277 277 278 278 278 279 280 280 280 280 281 283 283 284 284 284 284 284
273 273 275 277 279 280 278 275 274 270 271 267 267 274 273 275 270 266 267 271 269 269 270 270 270 271 274 273 274 274 273 274 274 273 273 272 272 271 271 271 271 270 270 269 269 269 269 269 269 269 269 270 269 269 268 269 268 268 268 267 267 267 267 268 269 271 273 275 275 276 277 277 277 278 279 278 279 279 280 281 281 282 283 283 283 283
276 269 269 272 272 269 274 272 268 264 263 268 266 267 265 265 268 269 269 267 268 268 268 269 269 269 271 272 272 271 271 271 272 272 270 270 270 270 269 269 270 270 269 269 268 268 268 268 268 268 268 268 268 268 267 267 266 267 266 266 267 267 266 267 268 270 272 273 274 275 276 276 277 277 277 277 277 278 278 279 279 281 282 282 282 282
277 271 273 270 273 268 267 266 266 268 268 268 268 266 266 267 268 268 268 266 266 266 269 268 267 268 269 270 270 270 269 269 269 270 269 268 268 268 268 267 268 268 268 267 267 267 267 266 266 266 266 267 267 267 267 266 265 265 265 266 267 265 265 265 266 268 270 271 272 273 275 276 276 276 276 276 276 276 277 277 278 278 280 280 281 281
276 274 276 275 267 269 269 269 270 268 268 268 268 268 266 267 268 268 267 266 266 267 268 267 267 267 268 269 268 268 267 268 268 268 269 268 267 267 267 267 267 268 267 267 266 266 266 266 266 265 265 266 267 266 266 266 265 264 265 266 265 264 264 264 265 266 267 269 270 272 274 275 275 275 276 276 275 275 275 275 276 276 277 278 278 279
273 275 274 272 272 269 266 268 267 266 267 268 267 268 268 268 267 267 266 266 266 267 267 267 267 267 268 268 267 266 266 267 267 267 267 267 266 265 265 265 265 266 266 265 265 264 264 265 264 264 264 264 266 265 265 265 265 265 265 265 264 263 263 263 264 265 266 267 269 271 273 273 273 274 274 274 274 274 274 274 274 275 275 276 276 276
269 276 271 271 270 269 270 267 267 268 267 267 267 267 266 267 267 267 266 266 266 267 267 267 267 266 267 266 266 266 265 266 265 266 266 265 265 265 264 264 264 265 265 265 265 264 263 263 262 262 263 263 265 264 264 264 264 264 264 264 263 262 262 262 263 263 264 266 268 270 272 272 273 273 272 273 273 272 272 273 273 273 274 274 275 274
268 272 266 271 265 269 267 268 268 267 267 265 266 266 265 266 266 266 266 265 266 266 266 267 266 265 265 264 265 265 265 264 265 265 265 264 264 264 263 263 264 264 264 264 264 263 262 262 261 261 262 262 264 264 264 263 263 264 263 263 262 261 261 261 262 263 264 265 267 268 270 270 271 271 272 272 272 272 272 272 272 272 273 274 275 275
268 267 270 269 266 265 265 264 267 264 266 265 263 264 264 264 265 265 265 264 264 264 265 265 265 265 264 264 263 264 263 263 264 264 264 263 263 263 263 263 263 263 263 264 263 262 262 261 261 260 261 261 263 263 262 262 262 263 263 262 261 261 259 260 261 262 263 264 266 267 268 269 270 270 271 272 271 272 272 275 274 274 273 272 274 275
262 262 262 265 266 264 260 260 262 264 264 262 263 263 263 263 263 263 262 262 263 263 264 263 263 263 263 263 263 262 262 262 262 263 262 262 262 262 262 262 262 262 262 262 261 261 260 260 260 260 260 261 262 262 261 260 261 261 262 261 260 259 259 259 260 261 262 264 264 266 267 268 268 269 271 271 270 271 270 270 272 274 274 273 273 273
Wind_Speed
4 6 7 12 11 13 11 14 15 13 2 2 2 4 11 11 15 14 9 6 3 6 12 11 12 16 22 22 20 19 17 16 15 13 11 10 10 9 8 8 8 8 11 10 7 7 7 8 9 10 10 11 12 12 12 12 12 13 14 11 12 11 11 11 10 10 10 10 7 7 9 11 10 10 10 10 10 10 10 11 12 11 11 10 10 11
3 6 13 16 8 10 12 11 10 10 6 5 6 5 11 10 14 14 11 8 7 2 5 4 12 19 21 21 19 16 13 15 12 11 12 12 10 8 7 7 6 7 6 6 8 7 5 5 7 6 7 7 9 11 10 12 14 13 13 13 14 11 11 12 13 12 11 11 11 12 12 12 11 10 10 11 11 13 11 11 9 9 9 10 10 10
5 11 17 8 5 4 7 8 9 11 11 7 7 6 7 13 7 13 13 4 4 3 11 6 14 19 22 22 20 15 12 10 7 6 10 10 12 10 8 6 6 7 9 7 6 5 4 4 4 4 5 6 7 8 8 12 13 12 12 12 12 11 12 12 13 12 12 10 11 12 10 13 10 10 11 10 9 7 7 7 8 8 8 9 9 11
5 8 21 5 4 7 6 6 7 7 6 7 6 4 13 5 4 9 2 3 4 1 11 11 14 17 19 18 12 10 6 6 7 7 9 7 5 6 8 6 5 7 9 8 6 7 6 4 4 3 4 6 5 7 7 6 8 9 10 11 12 12 12 12 13 13 13 14 15 13 10 7 7 6 5 4 2 4 5 7 9 10 10 12 12 12
15 5 3 5 8 8 8 7 6 7 8 7 9 11 10 9 10 8 8 7 10 7 3 6 9 12 9 9 9 5 3 4 7 7 4 2 2 5 6 4 3 5 6 7 7 6 6 7 6 4 5 5 5 6 6 7 8 7 10 12 13 12 12 11 11 13 12 9 4 3 2 3 3 3 3 4 4 6 9 11 10 12 11 11 10 10
10 10 1 1 4 7 6 6 9 8 7 6 12 16 13 10 10 8 7 8 6 9 2 5 9 7 5 9 14 13 9 9 5 6 6 6 8 8 8 7 8 7 3 5 5 5 5 5 6 7 7 5 5 6 7 7 8 8 9 10 10 9 8 10 11 13 11 10 11 9 8 6 5 7 6 9 12 12 11 11 5 3 4 7 8 9
8 7 7 12 6 4 6 9 5 8 8 4 7 9 15 15 11 7 8 2 5 3 2 5 1 13 7 15 13 9 4 9 9 4 6 5 5 6 6 7 7 6 9 7 5 5 6 5 5 6 6 6 6 7 5 4 5 6 8 8 9 9 9 9 8 8 8 8 8 12 14 13 13 13 10 9 9 9 8 7 8 9 8 10 11 9
4 8 12 11 9 8 6 11 5 10 7 7 3 3 4 4 5 6 4 7 8 2 8 2 5 7 12 18 1 2 4 8 7 6 5 5 5 5 5 6 5 6 5 4 6 6 5 5 3 5 7 6 7 6 4 2 1 4 5 5 6 6 6 6 6 8 10 11 11 11 11 11 11 12 13 12 9 4 4 6 8 7 8 10 11 12
9 4 9 9 8 8 13 12 5 11 7 5 2 6 5 7 6 3 4 4 3 4 11 4 2 2 7 11 2 4 8 6 3 4 5 4 4 5 5 5 5 5 4 3 4 6 6 6 6 5 6 6 5 5 3 2 1 1 2 3 2 4 5 4 4 6 8 10 11 12 11 10 9 10 9 3 5 6 6 7 5 6 7 8 9 9
1 4 9 11 8 12 7 4 9 11 8 7 2 3 2 2 2 3 2 2 4 2 16 6 7 3 12 7 7 1 2 6 5 5 5 4 4 4 4 5 6 5 6 4 4 4 5 5 5 5 6 5 4 4 4 3 2 2 2 3 2 3 3 4 5 6 7 6 6 8 8 11 10 7 4 4 6 6 6 7 7 7 7 7 8 8
5 1 6 4 7 6 4 5 7 10 12 3 3 1 3 4 3 2 3 2 4 5 19 6 12 9 8 6 9 3 6 6 4 2 4 4 4 4 4 4 4 5 6 6 7 6 5 5 5 4 4 4 5 4 3 2 2 1 1 1 1 2 2 3 5 5 7 7 6 9 10 11 11 7 7 6 5 5 5 7 7 7 7 6 7 7
3 3 2 4 6 2 3 1 1 4 3 4 1 3 5 6 5 1 3 3 2 10 2 7 13 11 9 9 8 6 5 3 10 6 7 5 5 4 4 4 4 4 5 7 6 7 7 7 7 5 5 5 4 4 5 4 3 2 1 0 3 2 4 4 5 5 6 7 7 6 7 9 8 7 8 9 9 8 9 8 8 6 5 6 6 6
13 14 9 5 4 11 2 3 3 2 3 5 5 4 3 4 6 2 3 3 8 10 2 2 7 1 15 13 8 7 6 8 4 7 10 8 6 5 5 4 4 5 5 5 6 6 7 5 6 6 6 5 5 5 5 4 3 3 3 2 2 4 3 5 6 7 6 6 8 8 8 7 6 7 8 9 9 8 8 8 7 7 8 7 7 8
8 5 8 11 1 6 9 9 2 2 7 8 8 6 5 3 2 4 5 2 6 6 4 2 1 6 2 8 20 23 22 13 8 6 6 7 7 6 6 4 4 4 4 5 5 6 6 6 5 5 5 5 4 4 4 4 4 4 2 2 2 5 3 2 4 6 6 7 7 7 7 8 8 9 9 8 9 8 8 8 9 10 10 9 11 10
4 5 6 9 6 7 13 15 12 6 8 12 4 11 9 7 6 5 4 5 6 4 5 2 4 8 5 6 1 6 10 9 5 9 8 8 7 6 4 3 4 4 4 4 5 5 6 7 6 5 5 5 5 4 4 3 4 3 4 3 3 4 4 2 3 3 5 5 5 5 6 7 7 9 8 8 8 8 9 8 9 9 8 9 9 9
9 8 5 12 2 7 14 8 8 6 3 3 4 5 4 11 4 5 4 1 2 4 4 2 7 4 7 4 10 7 6 4 1 6 6 7 6 4 4 4 4 4 4 4 5 6 6 5 5 5 5 4 4 5 4 4 3 3 4 3 4 4 4 4 3 4 4 4 4 5 5 7 6 6 6 7 7 8 9 9 9 9 9 8 7 7
1 6 1 4 5 7 8 5 5 10 6 4 8 9 10 3 5 5 3 0 0 1 11 3 8 7 8 13 15 12 4 7 1 5 6 8 7 5 5 5 4 4 4 4 4 5 7 6 5 4 5 4 4 4 4 4 3 4 4 3 4 5 4 4 4 4 4 4 4 4 5 5 5 6 7 8 7 7 6 6 7 7 8 7 6 7
5 5 0 4 3 2 0 0 1 1 5 6 6 8 3 2 3 4 4 3 1 5 7 2 10 7 3 11 1 4 3 7 6 9 10 9 7 6 8 6 6 5 4 4 5 6 7 6 6 5 4 4 4 4 4 4 3 4 4 3 4 4 5 6 5 5 4 4 4 4 4 4 5 5 5 5 5 5 5 5 5 4 6 7 6 6
3 7 3 2 2 2 3 2 1 1 0 6 4 3 8 4 3 2 5 3 2 4 6 5 4 8 11 10 4 3 5 7 9 10 7 9 8 8 8 7 6 6 6 5 4 4 5 5 5 4 4 4 4 4 4 4 2 1 2 3 3 4 4 4 4 4 5 3 4 3 4 5 5 4 4 4 4 4 5 6 5 6 6 4 5 5
1 4 3 1 3 0 1 3 7 7 1 1 1 1 1 2 1 7 8 2 3 5 0 8 1 11 5 6 9 12 10 11 10 8 12 14 12 10 8 6 6 5 5 5 5 5 5 5 4 5 5 4 4 4 4 4 2 2 3 2 3 3 2 2 3 4 5 5 4 4 3 3 3 3 4 4 4 5 5 5 5 5 5 6 5 6
4 2 5 0 4 1 3 6 11 14 12 5 3 4 0 1 2 2 1 6 6 5 5 2 9 9 6 8 10 15 12 9 12 15 14 13 10 9 8 7 6 5 5 6 6 5 5 5 4 4 4 5 6 4 5 5 4 4 2 3 3 4 5 4 4 3 4 3 3 3 4 4 3 3 3 3 4 5 6 5 6 6 6 4 6 6
2 2 9 3 1 7 7 3 7 9 15 14 14 13 15 11 5 3 9 1 1 3 4 2 12 12 8 2 9 9 6 8 10 14 14 12 10 9 9 7 6 5 6 6 5 5 5 4 5 5 5 5 8 9 9 8 7 7 6 5 5 3 4 4 4 4 4 2 2 2 3 4 3 2 2 4 4 5 5 5 5 5 4 5 6 6
7 2 1 6 9 10 7 1 1 5 4 3 7 11 11 10 6 6 11 5 2 5 3 5 1 20 5 7 8 9 8 9 10 9 11 9 9 10 9 8 7 7 7 6 5 3 3 4 3 4 7 7 7 7 8 8 8 8 8 9 6 5 7 4 5 3 3 3 3 2 1 1 2 2 3 5 5 5 5 4 4 4 5 6 5 5
5 3 5 11 4 1 1 1 1 1 1 2 5 1 6 13 15 10 7 4 5 2 6 4 6 14 3 1 1 3 5 3 3 6 10 6 6 9 7 6 6 5 6 3 4 4 3 3 5 9 9 9 9 9 8 7 7 8 8 8 8 9 9 8 5 4 3 2 3 3 1 2 1 2 3 4 3 3 3 3 3 3 4 4 4 6
4 4 9 6 4 3 2 1 2 1 1 4 5 7 9 8 7 8 2 0 4 9 13 6 10 15 2 2 2 1 4 3 2 4 7 8 7 8 7 6 6 3 2 4 3 3 4 7 10 7 6 7 7 7 8 8 8 8 8 8 9 8 8 8 8 3 2 2 2 2 3 3 3 3 4 4 3 3 2 2 3 3 4 4 5 5
9 7 11 10 11 11 12 13 12 8 9 4 3 6 9 14 15 7 10 9 10 11 16 7 12 19 3 3 3 4 2 3 3 3 4 3 5 7 5 6 1 4 2 2 4 4 7 5 4 6 6 7 7 7 7 8 7 7 7 8 6 8 9 9 9 6 1 0 1 2 2 3 2 4 4 4 4 5 4 4 4 4 4 4 5 4
4 7 14 15 16 16 14 10 2 6 5 8 12 16 14 15 14 12 6 7 14 16 12 13 19 19 16 11 4 7 2 5 5 1 3 5 4 3 0 3 4 5 4 4 3 4 3 5 7 6 6 6 6 6 6 7 8 8 8 9 9 8 7 7 8 8 8 7 7 7 7 6 4 3 3 4 4 4 3 4 4 4 5 5 5 5
1 8 16 20 23 21 17 15 5 11 9 12 14 13 15 13 14 16 14 17 16 3 14 19 19 13 25 19 11 12 8 5 5 4 4 4 4 3 3 6 6 5 4 4 4 4 4 4 4 5 6 6 6 5 6 6 7 7 7 8 8 8 8 7 7 8 9 9 9 9 9 9 8 7 4 3 3 3 3 3 3 4 4 3 4 4
9 14 14 14 19 16 15 11 6 5 6 8 14 13 16 16 14 17 19 22 18 14 20 24 9 14 23 20 12 15 12 11 6 6 4 1 3 5 6 6 5 4 3 4 3 4 4 4 3 4 5 5 5 7 7 7 7 7 7 7 8 8 8 7 6 8 8 8 9 9 9 9 8 8 9 8 7 4 3 3 3 3 3 3 4 4
4 12 7 12 17 17 16 15 12 11 6 5 10 14 14 15 18 20 20 22 25 22 21 22 14 14 18 10 8 11 9 12 14 9 3 6 1 5 7 5 4 3 3 3 3 2 2 2 2 3 4 6 7 7 7 7 7 7 8 8 8 8 8 7 8 8 8 9 8 7 8 8 8 9 9 10 9 8 7 6 4 3 3 3 4 4
8 11 12 11 12 15 16 16 17 19 17 19 14 12 11 12 15 19 21 23 22 20 19 21 18 19 25 11 6 3 4 5 6 7 11 2 6 7 6 5 3 3 2 1 1 2 2 3 2 3 6 6 7 6 5 5 5 5 6 7 7 8 8 7 8 8 8 8 8 8 8 8 9 8 9 8 8 8 9 8 7 6 4 4 3 3
10 11 8 12 13 15 15 18 24 22 25 23 19 18 13 12 15 18 20 18 13 16 20 18 17 21 15 11 9 5 7 7 7 9 7 2 6 8 8 7 5 3 2 1 1 2 3 3 5 7 6 6 5 5 5 6 5 6 7 6 7 7 7 7 8 9 9 9 8 8 9 8 9 10 9 8 9 8 8 7 8 8 7 6 6 5
12 11 13 13 16 18 15 22 25 24 21 17 20 20 24 23 21 19 17 11 17 18 18 16 23 22 8 2 5 9 10 12 13 15 13 6 6 9 10 9 7 5 2 1 1 2 3 4 5 7 7 6 6 7 7 5 5 7 7 7 7 5 6 7 7 8 8 7 7 8 8 6 6 7 7 8 8 7 8 8 9 9 9 8 6 4
3 10 13 11 17 13 14 19 14 15 22 20 13 24 24 25 22 24 23 23 23 18 18 19 19 16 6 4 8 8 12 14 13 2 3 3 6 5 7 7 7 6 4 3 2 3 4 6 7 7 7 7 6 6 6 5 5 5 4 5 5 6 6 7 7 7 7 7 7 7 6 6 6 6 6 5 6 6 7 8 8 7 6 7 8 7
9 11 11 6 8 4 6 4 11 21 19 4 12 17 22 24 24 28 28 29 26 24 24 20 19 19 17 14 13 9 3 5 8 6 4 6 3 5 6 7 6 6 5 4 4 7 7 7 7 8 9 9 8 7 7 7 5 4 5 5 6 6 6 6 7 7 8 7 7 6 7 7 6 6 6 6 5 6 6 6 6 6 7 6 6 7
15 12 8 8 7 5 6 9 15 15 3 3 4 14 17 21 24 24 26 27 29 25 19 19 21 23 23 23 19 8 9 8 7 6 5 5 5 5 6 6 6 6 7 6 6 7 6 6 8 9 8 8 8 8 7 7 6 6 6 5 6 6 6 6 7 8 7 8 7 6 6 6 6 6 6 6 6 6 6 6 7 6 6 6 6 5
18 15 13 16 11 17 13 15 23 10 17 7 2 5 11 14 10 17 18 21 23 18 19 21 23 25 24 20 17 5 10 6 3 2 4 4 7 8 8 8 7 7 7 7 6 6 5 6 7 8 7 7 8 9 9 8 7 6 6 6 6 6 6 7 8 8 8 9 9 7 7 7 6 6 5 5 5 6 6 6 6 6 5 6 6 6
17 16 10 16 11 15 17 18 12 14 19 16 10 8 13 15 15 17 15 21 14 17 19 21 21 20 21 16 11 10 9 6 8 8 6 6 7 9 9 9 9 8 8 7 6 6 7 7 7 7 7 8 9 9 9 8 7 6 6 6 6 6 7 7 8 8 8 8 9 7 7 7 7 8 7 7 6 6 5 4 4 4 4 4 4 6
19 19 18 19 13 10 16 14 14 14 14 5 13 12 17 17 18 7 9 22 4 1 3 11 19 17 16 16 7 15 10 12 16 8 9 9 8 8 9 9 9 9 8 8 7 7 8 8 9 8 8 8 10 11 10 8 7 6 7 7 7 7 8 9 8 9 8 8 8 7 7 6 6 5 6 7 6 5 6 6 6 5 5 4 3 4
20 15 15 18 19 17 16 16 16 9 7 0 3 2 6 6 5 7 19 13 3 12 10 6 6 10 9 6 13 15 16 15 17 8 11 10 9 8 8 8 8 8 9 9 9 8 7 7 8 9 9 10 10 10 10 9 6 7 7 8 7 9 10 10 10 9 8 7 8 7 8 7 8 7 6 7 6 5 4 3 2 4 4 4 3 3
13 14 15 23 19 17 19 15 10 7 1 8 9 14 16 9 4 15 21 1 8 9 11 9 8 8 3 2 12 13 2 5 6 16 12 13 12 11 10 9 9 9 10 10 9 8 7 7 7 8 8 8 9 10 9 8 6 7 7 8 8 11 11 10 9 9 9 8 8 8 9 8 8 9 8 7 7 6 6 4 5 4 4 3 3 3
9 10 10 15 19 19 16 18 15 5 3 9 12 12 12 1 8 12 4 4 7 9 10 10 11 11 9 9 7 8 7 9 14 12 12 10 10 10 10 10 10 10 10 9 10 9 7 6 7 8 8 8 8 9 9 8 7 7 8 8 11 12 11 10 10 9 8 7 6 6 7 8 7 6 6 7 7 7 7 7 6 5 5 4 3 3
5 6 7 12 12 14 12 14 13 15 3 21 22 10 7 2 3 3 5 6 10 9 9 11 11 12 10 11 12 11 12 12 12 12 11 11 10 10 10 9 9 9 9 9 10 10 8 6 7 7 8 7 8 8 9 8 8 8 8 10 11 11 12 12 11 11 10 9 8 8 8 8 9 7 6 7 7 7 6 6 6 6 5 5 4 4
4 2 6 6 7 5 5 8 3 3 8 14 14 5 8 4 8 8 5 3 8 8 9 7 11 11 12 10 10 11 11 11 11 11 11 10 10 10 10 9 8 8 8 9 9 9 9 7 7 7 7 7 7 7 7 7 7 7 8 9 8 10 10 11 12 11 10 9 9 9 9 9 9 9 8 8 8 7 6 6 6 5 4 5 4 4
0 4 2 4 4 2 4 3 7 5 1 4 7 6 7 9 9 8 7 6 6 8 8 7 10 11 12 11 11 11 10 11 10 9 10 9 9 9 9 9 8 8 8 8 9 9 8 8 8 7 7 7 8 8 7 7 7 6 8 7 7 8 7 7 8 7 6 6 6 6 5 2 2 4 5 6 6 7 6 7 6 5 6 5 4 4
3 2 4 2 3 2 3 1 2 2 1 3 4 4 5 6 7 7 8 7 8 7 8 8 9 10 11 11 9 10 10 8 9 8 9 9 8 8 8 8 8 8 8 8 9 10 8 7 6 7 8 7 7 7 6 7 7 8 8 7 8 8 6 6 5 5 6 6 5 5 6 3 4 4 5 4 2 3 3 3 4 3 4 5 5 5
1 1 1 2 4 2 4 6 3 4 3 1 1 2 4 4 5 5 5 6 6 7 8 9 8 10 10 11 11 9 9 9 8 7 6 7 7 8 8 8 8 8 8 9 9 9 8 7 7 8 8 7 7 7 7 7 6 7 7 7 8 8 8 7 6 6 7 8 7 7 7 7 6 6 5 5 4 4 3 4 4 4 3 2 3 4
2 0 3 4 3 5 3 4 4 2 2 2 5 3 5 7 6 5 5 5 5 7 7 8 8 9 9 9 9 8 8 9 8 7 6 6 6 7 7 8 8 7 8 8 8 9 7 7 8 8 8 8 8 9 9 9 10 9 9 8 9 9 9 9 10 9 9 9 8 8 8 8 11 10 6 5 5 4 3 3 3 4 4 4 5 5
5 7 3 1 2 2 4 1 2 1 2 3 4 5 4 6 7 6 7 7 6 8 8 8 10 8 9 8 8 7 6 8 8 7 7 6 6 7 8 8 8 8 8 8 9 9 8 8 9 10 10 10 10 10 10 11 12 12 12 12 12 13 12 11 12 10 10 9 8 8 8 8 8 8 7 6 5 4 2 1 2 3 4 4 4 5
2 2 3 4 1 2 2 3 3 3 1 3 4 5 6 7 7 7 7 8 8 8 8 7 8 9 9 9 8 7 7 6 7 7 7 6 7 8 8 8 7 8 8 8 7 8 8 9 9 9 9 9 9 9 9 10 10 10 10 11 11 12 12 12 11 11 10 10 9 9 8 8 8 8 7 7 6 6 4 2 1 3 2 3 7 9
2 4 3 3 3 1 5 5 6 5 2 2 3 4 6 7 7 8 9 9 9 8 7 7 6 7 8 8 8 8 7 6 7 7 6 6 7 7 7 7 7 7 7 8 7 8 8 9 9 8 8 8 8 7 7 8 8 8 9 9 9 9 8 9 7 6 6 6 6 7 7 7 6 7 6 5 5 5 5 5 4 1 4 5 6 8
Wind_Direction
130 168 200 219 213 207 207 205 215 233 276 329 317 293 273 275 279 274 269 264 240 278 264 260 271 282 287 290 293 290 299 301 293 287 280 274 271 271 268 267 269 270 261 273 281 274 247 238 234 230 225 226 226 222 218 218 219 216 214 203 208 207 199 193 196 199 197 199 203 214 210 210 205 208 210 213 215 216 213 209 206 203 203 200 198 199
102 187 238 232 212 201 208 216 237 265 282 260 270 274 279 266 268 278 292 292 264 209 275 271 290 283 286 289 291 293 298 287 284 290 292 292 290 276 267 276 280 270 293 303 300 287 272 254 243 242 239 236 231 230 219 216 217 212 211 204 208 202 198 198 195 196 198 199 197 195 203 203 208 208 208 217 214 215 213 210 206 204 201 197 196 195
194 209 241 234 191 185 213 217 222 225 241 246 236 263 283 270 262 274 271 257 262 194 273 301 298 290 288 290 292 290 278 270 264 256 271 284 289 299 302 296 299 318 306 317 297 298 313 314 306 268 251 246 235 247 233 224 215 212 209 208 208 201 196 201 200 195 199 201 207 203 205 201 210 213 212 216 220 213 214 201 200 201 198 195 196 193
217 244 249 226 155 179 222 218 215 236 236 238 243 238 239 262 2 309 243 331 318 318 294 301 291 285 286 284 280 267 250 250 274 278 274 251 256 282 293 299 301 315 310 305 300 290 301 308 303 324 294 260 260 246 241 241 236 224 211 207 207 204 201 201 203 198 200 200 203 206 210 210 202 195 199 198 155 178 186 207 201 203 196 195 196 192
208 214 236 200 195 174 210 218 207 213 237 231 228 239 254 259 247 220 291 332 308 290 251 295 275 278 271 302 318 279 212 291 297 312 297 348 252 260 272 304 293 305 301 293 305 322 335 337 325 305 282 296 281 254 242 230 215 214 216 212 208 207 201 204 202 200 200 196 172 136 62 73 88 56 119 159 204 201 205 212 206 209 201 197 195 191
262 260 261 50 162 195 201 237 222 197 242 247 236 230 234 246 265 265 288 347 342 313 327 17 335 278 291 303 290 291 327 319 313 354 328 330 329 342 344 319 315 316 277 253 294 300 295 293 313 326 319 308 281 270 251 231 222 204 215 219 217 212 207 205 203 199 193 183 179 168 167 163 179 202 183 197 206 209 209 215 204 196 188 196 199 196
237 233 239 243 207 185 205 222 210 171 219 221 265 209 224 235 242 265 285 23 289 245 275 55 65 289 302 288 283 298 310 297 316 333 301 322 322 332 319 316 310 307 322 327 323 328 333 318 332 323 317 302 297 281 274 259 238 226 217 214 214 208 207 207 204 192 177 184 185 187 190 195 198 205 215 215 219 210 210 197 190 195 186 193 195 199
171 206 215 229 230 215 217 241 197 176 185 240 251 169 192 198 205 224 209 201 246 264 280 180 169 245 305 289 263 208 324 300 310 312 322 322 322 307 300 302 310 314 317 308 306 305 299 287 311 300 299 305 294 290 309 267 202 203 217 211 219 224 214 204 190 179 183 187 189 193 202 204 206 207 215 209 212 194 172 184 200 190 197 198 199 198
166 209 203 216 215 211 227 225 170 174 179 214 255 168 182 191 204 167 169 213 230 32 283 131 190 282 245 264 298 268 292 310 293 283 290 293 294 284 289 299 306 307 299 296 304 308 303 304 312 300 294 297 313 323 338 336 354 104 123 144 164 200 205 198 177 186 196 195 193 194 197 204 212 212 221 182 172 183 176 188 194 195 201 201 206 205
272 181 201 201 184 224 221 204 190 172 216 260 173 86 62 79 89 148 182 276 340 3 271 200 178 213 276 276 310 3 224 244 243 247 257 258 259 273 296 311 317 326 330 324 316 299 300 299 298 285 283 296 293 298 309 321 15 42 67 96 135 198 197 191 180 185 197 202 189 195 199 203 211 208 200 154 180 186 173 196 198 199 196 199 202 204
240 269 157 146 219 223 178 218 182 185 206 101 115 249 347 28 19 20 72 94 37 262 256 176 196 177 284 267 245 204 217 189 195 264 267 275 277 284 280 282 302 319 325 324 325 323 316 298 276 297 297 287 311 314 322 340 7 359 51 96 148 204 184 182 190 182 195 195 190 200 202 205 210 199 186 177 193 182 179 200 203 196 200 192 201 193
259 267 245 238 163 132 137 183 42 199 179 144 153 125 21 315 14 36 345 50 173 264 274 213 191 184 206 286 278 229 279 190 157 182 206 235 252 260 274 283 290 299 311 316 325 323 327 336 335 341 329 320 298 315 329 326 344 3 8 116 184 205 175 174 179 183 195 191 201 208 204 208 207 184 185 193 199 191 194 198 197 192 182 199 199 193
247 237 230 273 212 163 165 135 256 54 115 126 107 90 134 271 27 312 34 267 211 233 267 68 137 35 237 245 265 296 242 251 224 179 187 202 229 250 264 265 269 287 304 316 315 318 322 323 319 330 317 317 326 317 306 304 315 328 338 334 263 252 204 181 173 181 192 192 202 198 198 204 189 189 195 199 200 191 195 191 188 182 200 192 192 202
274 255 227 220 292 204 153 189 199 176 191 144 160 163 152 226 221 262 251 266 303 283 268 123 242 257 262 265 250 250 252 231 212 218 199 186 203 222 239 258 287 299 294 290 299 301 297 298 306 305 305 303 296 297 299 305 320 315 315 311 264 260 272 225 175 181 185 203 204 198 198 195 184 196 197 201 199 193 196 188 195 194 198 196 202 198
331 325 245 131 231 180 189 209 196 158 151 191 129 163 189 151 165 219 194 206 222 228 303 268 117 235 145 246 229 243 263 257 210 201 201 208 210 218 239 265 281 289 292 292 301 294 288 295 293 295 300 301 296 291 298 304 296 320 308 311 293 288 281 238 210 176 192 208 216 216 208 200 194 199 197 202 195 190 194 197 198 200 199 201 205 202
220 237 248 186 301 160 191 200 112 103 112 200 154 64 113 218 127 219 205 175 296 336 339 204 209 197 198 265 300 272 293 310 160 200 186 221 231 244 260 240 252 275 275 293 300 302 299 287 292 300 299 289 288 287 296 291 274 285 271 293 291 271 280 270 227 210 197 206 203 215 215 216 207 206 201 202 201 202 195 194 196 199 198 204 201 202
280 270 288 175 14 174 194 133 189 145 195 205 120 205 206 158 183 288 314 341 85 26 249 165 281 269 299 294 275 278 232 257 319 209 194 217 217 218 234 237 248 257 278 281 275 281 294 307 306 282 278 288 291 291 270 259 240 233 257 271 284 290 297 287 278 263 218 203 196 222 222 222 217 211 207 208 208 204 201 197 201 197 201 199 198 197
185 244 325 153 210 291 196 241 82 233 132 103 193 223 98 100 94 132 213 323 62 212 270 139 228 265 143 275 311 306 297 235 201 203 207 213 212 215 232 231 236 240 244 259 273 272 268 273 278 290 289 271 270 266 279 267 241 221 223 228 248 274 273 277 279 278 271 247 222 218 217 224 221 219 222 217 210 203 197 209 205 203 199 203 198 190
144 281 225 236 69 355 2 85 29 312 351 156 195 224 133 234 230 252 93 260 237 254 267 282 260 258 210 240 336 311 228 234 213 202 201 221 226 228 235 245 256 269 292 283 280 294 301 296 296 293 290 299 290 275 270 285 293 245 233 222 202 230 239 264 286 285 285 269 258 238 219 208 219 224 227 228 217 198 204 205 204 203 207 194 189 188
11 216 309 338 131 250 43 125 193 199 275 64 77 352 288 91 227 146 201 177 122 250 46 287 36 253 184 214 211 250 234 212 203 199 211 214 213 214 226 237 245 255 245 256 261 263 267 277 281 288 303 312 316 310 300 299 318 282 259 239 238 244 248 258 271 275 275 271 264 273 272 251 225 218 210 207 195 202 209 209 200 203 196 199 185 192
254 142 260 138 310 104 188 191 207 173 176 187 190 224 348 242 244 94 330 170 185 182 203 255 295 265 247 213 208 219 230 197 196 202 210 213 215 214 224 223 234 237 239 237 241 252 262 283 309 316 307 312 322 334 344 341 308 297 321 278 263 244 254 239 230 225 248 264 270 275 261 255 247 238 222 206 199 199 209 205 202 202 201 175 196 185
203 235 228 125 5 225 237 244 192 184 183 179 188 202 194 167 198 188 254 63 136 125 229 154 256 274 249 225 213 243 237 209 211 206 208 212 203 205 224 236 227 235 235 229 239 240 267 309 327 348 359 0 12 11 13 5 3 348 330 317 316 302 272 262 263 221 218 217 240 249 270 276 268 237 213 211 204 210 207 207 203 202 184 194 202 187
183 170 110 202 217 217 213 244 305 218 221 201 184 216 183 199 197 187 225 240 50 248 175 199 241 266 228 201 187 213 224 214 208 199 220 213 196 204 219 224 228 213 209 219 232 286 323 324 341 29 37 32 28 20 19 19 22 16 10 4 350 335 305 293 278 265 214 194 195 229 254 297 284 279 238 216 213 210 208 207 208 191 192 201 199 199
112 210 225 253 276 331 303 336 51 50 156 279 262 167 154 203 208 207 219 186 186 190 222 249 219 265 280 281 257 316 279 268 275 217 217 207 201 209 207 217 223 227 239 291 356 337 333 2 40 38 29 23 17 15 12 9 12 15 16 8 6 4 342 328 294 269 243 230 216 192 188 233 259 265 258 250 258 247 237 207 193 175 187 199 186 193
150 210 215 235 259 305 331 345 292 351 77 208 220 207 208 220 221 234 42 143 250 210 231 192 247 258 284 313 337 48 318 308 271 252 193 198 211 200 193 211 223 219 16 358 352 26 49 47 41 37 28 24 14 11 12 10 11 12 6 7 3 353 344 345 337 286 225 218 228 219 200 218 210 220 241 244 258 260 254 244 223 188 188 175 181 196
196 160 186 210 209 212 219 219 226 216 208 218 246 227 209 203 207 189 229 210 232 242 238 226 252 250 276 337 350 332 346 325 271 263 272 222 197 197 199 229 24 59 56 44 76 60 57 58 50 41 33 23 17 12 8 8 10 8 7 6 360 352 351 355 348 348 338 149 181 228 225 234 219 224 227 224 228 227 225 221 213 216 215 191 195 190
197 189 195 206 212 225 231 246 269 124 114 186 216 210 214 214 208 212 226 227 226 239 247 234 238 260 264 240 278 255 239 241 270 273 198 232 257 245 219 65 91 99 96 89 69 80 73 52 50 42 38 30 20 14 9 9 6 7 5 4 2 357 353 356 5 10 27 23 27 16 1 343 313 284 251 235 233 231 225 222 222 213 221 208 202 195
87 218 211 213 217 224 226 229 189 164 184 209 208 216 214 202 199 204 206 227 229 290 258 244 234 239 258 248 229 253 258 267 275 248 219 244 209 149 141 98 90 81 54 40 37 44 55 53 47 47 37 31 23 12 14 10 10 7 7 2 358 359 360 359 20 34 34 31 30 24 6 3 357 355 337 312 299 272 253 247 236 230 235 211 215 213
187 224 214 220 238 235 232 235 159 191 198 195 205 207 207 202 197 204 216 229 226 219 237 250 234 227 249 252 227 235 238 255 250 251 257 191 97 109 99 107 101 81 59 50 38 31 39 42 39 43 45 34 25 21 14 12 8 9 9 9 6 5 4 353 24 42 42 38 32 16 7 1 1 2 5 6 12 3 330 285 260 249 240 225 226 218
173 247 215 218 230 229 236 237 225 204 208 226 206 211 208 198 205 209 219 226 225 229 236 252 245 230 253 254 207 223 224 238 255 269 135 93 218 134 125 117 96 68 48 40 29 18 15 26 40 53 56 39 30 19 14 13 12 12 12 8 5 8 1 2 27 39 43 45 34 18 13 9 9 7 6 10 7 0 355 351 331 308 271 248 233 227
198 223 197 229 240 234 233 233 233 232 222 229 213 216 206 208 211 213 224 230 234 240 243 250 260 268 261 233 208 210 256 269 287 266 270 124 115 121 120 114 116 110 87 28 26 14 360 357 1 37 53 46 31 19 10 6 10 15 23 17 9 9 2 17 33 37 39 43 37 32 26 24 17 11 14 5 5 2 2 356 352 10 5 345 330 303
209 248 220 234 238 237 220 223 232 230 233 226 223 221 214 210 217 221 225 225 222 227 235 241 246 248 258 110 225 200 223 231 236 254 233 148 128 134 138 145 142 136 119 101 28 24 18 17 17 16 29 37 31 16 7 5 6 24 28 19 18 8 2 28 40 42 43 42 40 38 38 37 30 27 18 13 9 4 359 0 12 14 5 2 360 340
198 206 217 224 240 235 213 221 229 233 241 237 223 219 223 221 225 232 239 223 219 218 228 225 233 240 233 198 191 215 214 237 253 252 246 166 172 152 149 145 134 115 90 36 29 33 28 25 31 22 2 7 22 14 359 356 18 29 22 25 18 11 22 34 34 42 43 36 39 36 40 34 35 33 28 20 10 6 9 11 13 11 5 355 332 328
299 243 235 210 238 236 217 232 229 230 227 218 198 213 214 224 223 232 237 234 229 213 227 225 240 244 218 188 197 214 210 215 235 226 56 160 163 135 119 118 115 109 98 59 23 24 30 32 28 23 8 356 4 11 352 3 22 28 19 24 24 36 42 46 45 45 36 28 32 26 28 27 33 39 36 31 25 17 18 18 12 2 0 352 356 358
229 235 242 226 244 211 196 208 236 232 243 194 189 201 212 225 226 230 235 237 239 230 232 238 243 247 241 234 224 212 158 63 66 82 46 34 96 119 126 118 114 117 109 91 48 34 31 34 30 21 9 358 353 4 5 7 13 16 18 14 32 38 46 48 49 45 38 27 20 17 17 19 23 30 28 25 29 30 28 23 10 12 5 356 352 350
243 234 245 238 245 256 233 219 243 234 77 339 192 184 201 217 221 230 240 238 238 235 229 236 238 244 243 238 235 208 132 116 80 65 55 40 66 116 118 114 103 91 78 58 47 40 32 35 39 26 11 355 348 3 12 5 2 15 17 12 29 30 44 50 49 45 37 29 15 12 8 5 7 17 19 23 27 31 29 23 16 2 0 354 346 353
242 250 240 253 222 245 233 236 244 278 278 189 119 211 186 208 200 215 238 241 236 227 222 226 230 235 240 244 238 147 129 112 86 63 98 81 79 78 86 83 75 67 66 60 52 51 45 46 47 29 15 5 1 5 5 355 5 14 10 23 24 27 35 41 42 36 32 30 20 12 8 5 360 359 4 17 27 27 21 16 15 2 360 1 355 354
224 230 226 243 225 225 245 245 249 233 233 235 212 212 211 210 204 212 216 248 224 228 219 228 230 232 237 241 233 148 144 125 213 229 145 134 99 97 92 89 78 66 56 48 38 40 43 41 40 29 22 11 7 7 359 351 3 10 13 19 16 17 30 33 32 21 22 23 20 6 5 4 1 2 354 5 19 19 15 14 21 16 5 13 5 6
220 219 228 233 250 222 232 231 237 245 247 194 220 202 211 201 210 188 218 246 203 242 229 229 228 227 227 226 187 139 156 202 229 205 150 132 126 109 104 98 87 76 60 48 38 32 41 38 34 24 17 17 17 4 354 345 8 5 6 6 7 14 22 21 14 8 1 7 13 6 5 3 360 7 360 3 3 355 5 7 5 1 2 14 19 17
218 217 219 231 233 232 239 241 239 240 263 219 337 332 333 282 135 130 236 247 49 349 336 331 231 221 227 222 149 168 181 215 228 180 145 119 113 108 100 106 94 81 61 44 33 25 46 40 34 30 20 16 15 1 355 346 8 15 10 7 8 18 18 7 359 352 346 359 8 4 1 1 357 357 1 1 350 342 344 354 3 21 18 12 22 12
215 217 210 229 231 237 237 247 254 252 86 357 339 324 323 306 147 208 229 213 346 347 350 4 18 6 341 177 164 180 317 351 46 111 116 115 108 103 93 86 83 79 69 48 34 26 38 37 34 34 22 14 12 4 357 356 11 21 17 12 16 16 5 352 344 342 339 358 4 3 1 358 359 355 354 353 343 339 342 357 357 6 33 41 36 47
241 218 222 218 224 230 236 243 247 267 67 339 295 301 287 144 189 217 61 347 317 359 2 2 8 7 25 55 32 66 91 79 83 92 99 98 95 94 91 85 83 79 70 53 38 29 33 38 33 32 24 19 15 9 2 3 14 22 20 20 20 3 349 344 341 336 336 352 2 0 5 359 352 353 353 348 345 337 341 350 353 360 7 23 47 46
335 310 271 219 229 225 226 249 241 241 39 9 320 314 8 242 356 354 272 11 22 357 3 9 14 1 11 61 67 78 78 72 71 82 87 87 83 80 75 69 67 70 63 44 32 23 21 29 27 28 23 16 17 12 6 7 15 21 23 26 14 354 347 342 339 336 339 349 354 359 3 4 355 0 359 352 346 340 338 343 350 353 2 10 13 20
273 52 320 2 11 338 269 238 258 15 298 352 16 8 13 346 345 337 9 16 16 17 2 14 16 8 9 45 67 70 68 73 70 72 75 72 73 73 67 59 57 61 66 56 41 22 16 19 22 17 17 18 19 16 11 11 16 22 29 24 12 357 348 343 339 333 339 346 346 348 353 360 355 358 358 355 346 339 340 343 342 347 7 5 10 3
156 150 226 295 342 160 251 219 230 212 337 32 47 6 352 355 1 355 45 53 32 13 4 26 23 14 11 29 47 55 62 58 62 60 68 66 62 60 59 53 45 49 52 48 39 23 19 15 10 9 5 13 18 11 12 8 18 19 29 17 10 357 348 336 320 314 319 325 319 308 306 313 347 1 355 353 354 348 340 343 347 346 354 358 1 8
38 149 258 187 256 255 3 301 176 179 136 74 97 90 11 344 2 14 23 48 28 28 26 31 28 25 24 24 46 42 45 45 52 55 64 61 57 54 51 47 40 42 46 45 39 25 15 13 7 7 359 1 15 9 8 7 13 18 11 7 5 356 342 325 313 319 330 323 313 314 315 337 3 9 9 359 360 346 333 328 335 338 346 352 354 352
243 280 320 227 177 192 303 154 181 201 183 113 96 51 66 39 9 14 30 37 36 34 41 38 39 38 33 37 44 48 37 32 34 45 56 63 51 45 41 38 34 32 34 37 38 26 15 17 9 3 357 347 1 4 359 1 12 15 7 6 2 352 349 336 340 342 340 338 337 341 340 3 351 354 353 355 358 356 345 353 347 344 344 8 5 351
217 113 31 210 180 208 305 162 185 97 114 67 21 355 356 355 4 31 46 43 38 36 44 43 45 47 42 44 33 46 45 30 28 21 38 47 41 37 34 28 25 27 32 35 35 25 17 16 6 356 354 349 353 2 357 359 0 3 6 6 2 353 352 355 0 356 345 337 343 346 347 352 347 348 343 347 349 348 349 351 353 347 350 353 349 347
298 354 272 108 157 230 27 198 112 18 293 25 56 39 14 349 340 1 23 42 46 47 44 51 52 49 51 48 38 39 49 40 27 22 28 38 28 32 24 21 17 20 22 22 28 21 17 6 2 355 356 350 355 358 1 358 353 355 2 5 2 358 358 354 351 348 344 341 345 346 346 348 341 341 335 332 334 330 325 305 357 346 343 351 2 355
346 188 329 30 288 238 233 2 329 214 283 126 53 18 2 352 355 3 7 22 32 40 43 48 56 57 52 46 39 41 46 36 29 23 31 35 27 23 20 16 13 13 18 18 21 15 12 8 1 356 352 348 351 357 1 353 350 354 360 4 1 358 354 347 343 342 342 341 340 338 340 340 338 329 327 325 329 326 326 312 12 12 14 332 0 4
46 352 17 236 274 231 30 300 345 310 360 78 39 24 12 4 4 19 17 10 10 19 27 43 55 56 53 51 43 37 36 32 30 28 24 30 19 22 13 13 7 8 7 9 11 8 7 1 357 354 350 344 351 352 357 346 346 349 356 359 356 351 340 332 324 316 314 322 321 321 323 324 322 314 311 322 322 318 314 316 317 328 30 33 26 22